Location: Palomar Mountain Lodge
(33.3110°N, 116.8495°W)
Time: 14:21:59
(UTC-08:00)

Cosmos 292 Rocket - Pass Details

Date: 19 May 2017
Orbit: 675 x 694 km, 74.0° (Epoch: 18 December)

Event Time Altitude Azimuth Distance (km) Brightness Sun altitude
Rises 21:26:21 0° 205° (SSW) 3,049 6.9 -18.8°
Reaches altitude 10° 21:28:41 10° 209° (SSW) 2,135 6.2 -19.2°
Maximum altitude 21:33:25 59° 288° (WNW) 795 4.3 -19.9°
Drops below altitude 10° 21:38:10 10° 8° (N) 2,137 6.7 -20.7°
Sets 21:40:31 0° 13° (NNE) 3,053 7.5 -21.0°
